| time (UTC) | temp C | wind direction | speed KPH | gust KPH | rain 1hr cm | rain 24hr cm | rain mn cm | humidity % | barometer mb |
| 20260506104508 | 16 | 94 | 17.7 | 17.7 | 0.00 | 0.00 | 0.00 | 70 | 1009.6 |
| 20260506104008 | 16 | 94 | 17.7 | 17.7 | 0.00 | 0.00 | 0.00 | 70 | 1009.8 |
| 20260506103508 | 16 | 94 | 17.7 | 17.7 | 0.00 | 0.00 | 0.00 | 70 | 1009.7 |
| 20260506103008 | 16 | 94 | 17.7 | 17.7 | 0.00 | 0.00 | 0.00 | 69 | 1009.6 |
| 20260506102508 | 16 | 94 | 17.7 | 17.7 | 0.00 | 0.00 | 0.00 | 70 | 1009.7 |
| 20260506102008 | 16 | 94 | 17.7 | 17.7 | 0.00 | 0.00 | 0.00 | 69 | 1009.6 |
| 20260506101507 | 16 | 94 | 17.7 | 17.7 | 0.00 | 0.00 | 0.00 | 69 | 1009.6 |
| 20260506101008 | 16 | 94 | 17.7 | 17.7 | 0.00 | 0.00 | 0.00 | 69 | 1009.7 |
| 20260506100507 | 16 | 94 | 17.7 | 17.7 | 0.00 | 0.00 | 0.00 | 70 | 1009.8 |
| 20260506100008 | 16 | 94 | 17.7 | 17.7 | 0.00 | 0.00 | 0.00 | 71 | 1009.5 |
| 20260506095507 | 16 | 94 | 17.7 | 17.7 | 0.00 | 0.00 | 0.00 | 71 | 1009.6 |
| 20260506095009 | 16 | 94 | 17.7 | 17.7 | 0.00 | 0.00 | 0.00 | 71 | 1009.6 |
| 20260506094508 | 16 | 94 | 17.7 | 17.7 | 0.00 | 0.00 | 0.00 | 71 | 1009.4 |
| 20260506094008 | 15 | 94 | 17.7 | 17.7 | 0.00 | 0.00 | 0.00 | 72 | 1009.6 |
| 20260506093508 | 15 | 94 | 17.7 | 17.7 | 0.00 | 0.00 | 0.00 | 71 | 1009.6 |
| 20260506093008 | 15 | 94 | 17.7 | 17.7 | 0.00 | 0.00 | 0.00 | 73 | 1009.4 |
| 20260506092008 | 15 | 94 | 17.7 | 17.7 | 0.00 | 0.00 | 0.00 | 74 | 1009.3 |
| 20260506091508 | 15 | 94 | 17.7 | 17.7 | 0.00 | 0.00 | 0.00 | 75 | 1009.4 |
| 20260506091008 | 15 | 94 | 17.7 | 17.7 | 0.00 | 0.00 | 0.00 | 74 | 1009.6 |
| 20260506090508 | 15 | 94 | 17.7 | 17.7 | 0.00 | 0.00 | 0.00 | 74 | 1009.6 |
| 20260506090007 | 15 | 94 | 17.7 | 17.7 | 0.00 | 0.00 | 0.00 | 74 | 1009.8 |
| 20260506085508 | 15 | 94 | 17.7 | 17.7 | 0.00 | 0.00 | 0.00 | 75 | 1009.5 |
| 20260506085008 | 15 | 94 | 17.7 | 17.7 | 0.00 | 0.00 | 0.00 | 76 | 1009.5 |
| 20260506084507 | 15 | 94 | 17.7 | 17.7 | 0.00 | 0.00 | 0.00 | 76 | 1009.5 |
| 20260506084007 | 15 | 94 | 17.7 | 17.7 | 0.00 | 0.00 | 0.00 | 78 | 1009.5 |
| 20260506083507 | 14 | 94 | 17.7 | 17.7 | 0.00 | 0.00 | 0.00 | 78 | 1009.5 |
| 20260506083008 | 14 | 94 | 17.7 | 17.7 | 0.00 | 0.00 | 0.00 | 79 | 1009.5 |
| 20260506082507 | 14 | 94 | 17.7 | 17.7 | 0.00 | 0.00 | 0.00 | 79 | 1009.4 |
| 20260506082007 | 14 | 94 | 17.7 | 17.7 | 0.00 | 0.00 | 0.00 | 80 | 1009.6 |
| 20260506081508 | 14 | 94 | 17.7 | 17.7 | 0.00 | 0.00 | 0.00 | 80 | 1009.6 |
| 20260506081008 | 13 | 94 | 17.7 | 17.7 | 0.00 | 0.00 | 0.00 | 81 | 1009.4 |
| 20260506080507 | 13 | 94 | 17.7 | 17.7 | 0.00 | 0.00 | 0.00 | 82 | 1009.6 |
| 20260506073507 | 13 | 216 | 11.3 | 14.5 | 0.00 | 0.00 | 0.00 | 84 | 1009.3 |
| 20260506073007 | 13 | 179 | 6.4 | 8.0 | 0.00 | 0.00 | 0.00 | 86 | 1009.2 |
| 20260506072508 | 13 | 177 | 9.7 | 17.7 | 0.00 | 0.00 | 0.00 | 86 | 1009.6 |
| 20260506072008 | 13 | 182 | 9.7 | 11.3 | 0.00 | 0.00 | 0.00 | 87 | 1009.4 |
| 20260506071508 | 13 | 183 | 9.7 | 12.9 | 0.00 | 0.00 | 0.00 | 86 | 1009.4 |
| 20260506071007 | 13 | 197 | 17.7 | 17.7 | 0.00 | 0.00 | 0.00 | 87 | 1009.1 |
| 20260506070508 | 12 | 179 | 8.0 | 14.5 | 0.00 | 0.00 | 0.00 | 88 | 1009.2 |
| 20260506062007 | 12 | 160 | 9.7 | 11.3 | 0.00 | 0.00 | 0.00 | 91 | 1009.1 |
| 20260506061508 | 12 | 153 | 8.0 | 11.3 | 0.00 | 0.00 | 0.00 | 90 | 1008.8 |
| 20260506061008 | 12 | 152 | 9.7 | 14.5 | 0.00 | 0.00 | 0.00 | 91 | 1008.9 |
| 20260506060507 | 12 | 151 | 12.9 | 16.1 | 0.00 | 0.00 | 0.00 | 92 | 1008.9 |
| 20260506051008 | 11 | 157 | 14.5 | 19.3 | 0.00 | 0.00 | 0.00 | 90 | 1009.0 |
| 20260506050508 | 11 | 167 | 12.9 | 20.9 | 0.00 | 0.00 | 0.00 | 91 | 1009.0 |
| 20260506045008 | 11 | 146 | 16.1 | 17.7 | 0.00 | 0.00 | 0.00 | 93 | 1009.0 |
| 20260506044507 | 11 | 151 | 17.7 | 19.3 | 0.00 | 0.00 | 0.00 | 93 | 1008.8 |
| 20260506044008 | 11 | 137 | 12.9 | 16.1 | 0.00 | 0.00 | 0.00 | 93 | 1008.7 |
| 20260506043508 | 11 | 157 | 9.7 | 16.1 | 0.00 | 0.00 | 0.00 | 94 | 1008.6 |
| 20260506043007 | 11 | 139 | 12.9 | 16.1 | 0.00 | 0.00 | 0.00 | 94 | 1008.7 |
| 20260506042006 | 11 | 128 | 9.7 | 12.9 | 0.00 | 0.00 | 0.00 | 94 | 1008.4 |
| 20260506041507 | 11 | 157 | 9.7 | 11.3 | 0.00 | 0.00 | 0.00 | 94 | 1008.6 |
| 20260506041007 | 11 | 111 | 11.3 | 12.9 | 0.00 | 0.00 | 0.00 | 95 | 1008.7 |
| 20260506040507 | 11 | 153 | 11.3 | 12.9 | 0.00 | 0.00 | 0.00 | 96 | 1008.6 |
| 20260506040008 | 11 | 155 | 9.7 | 11.3 | 0.00 | 0.00 | 0.00 | 95 | 1008.4 |
| 20260506035507 | 11 | 159 | 9.7 | 9.7 | 0.00 | 0.00 | 0.00 | 95 | 1008.4 |
| 20260506035007 | 11 | 160 | 6.4 | 9.7 | 0.00 | 0.00 | 0.00 | 96 | 1008.2 |
| 20260506034508 | 10 | 172 | 8.0 | 8.0 | 0.00 | 0.00 | 0.00 | 97 | 1008.1 |
| 20260506034008 | 10 | 188 | 9.7 | 11.3 | 0.00 | 0.00 | 0.00 | 98 | 1008.2 |
| 20260506033508 | 10 | 186 | 8.0 | 8.0 | 0.00 | 0.00 | 0.00 | 98 | 1008.1 |
| 20260506033008 | 10 | 173 | 9.7 | 9.7 | 0.00 | 0.00 | 0.00 | 97 | 1008.2 |
| 20260506032508 | 10 | 189 | 8.0 | 9.7 | 0.00 | 0.00 | 0.00 | 97 | 1008.1 |
| 20260506032008 | 10 | 201 | 6.4 | 6.4 | 0.00 | 0.00 | 0.00 | 98 | 1008.2 |
| 20260506031508 | 10 | 159 | 3.2 | 6.4 | 0.00 | 0.00 | 0.00 | 98 | 1008.1 |
| 20260506031007 | 10 | 156 | 6.4 | 8.0 | 0.00 | 0.00 | 0.00 | 98 | 1008.1 |
| 20260506030508 | 11 | 144 | 3.2 | 8.0 | 0.00 | 0.00 | 0.00 | 97 | 1008.1 |
| 20260506030008 | 11 | 154 | 8.0 | 8.0 | 0.00 | 0.00 | 0.00 | 97 | 1008.0 |
| 20260506025507 | 11 | 163 | 8.0 | 9.7 | 0.00 | 0.00 | 0.00 | 97 | 1008.4 |
| 20260506025008 | 11 | 149 | 8.0 | 8.0 | 0.00 | 0.00 | 0.00 | 98 | 1008.4 |
| 20260506024008 | 11 | 133 | 9.7 | 11.3 | 0.00 | 0.00 | 0.00 | 98 | 1008.4 |
| 20260506023509 | 11 | 157 | 11.3 | 14.5 | 0.00 | 0.00 | 0.00 | 98 | 1008.5 |
| 20260506023007 | 11 | 180 | 9.7 | 9.7 | 0.00 | 0.00 | 0.00 | 98 | 1008.4 |
| 20260506022507 | 11 | 135 | 9.7 | 11.3 | 0.00 | 0.00 | 0.00 | 98 | 1008.4 |
| 20260506022007 | 11 | 128 | 9.7 | 12.9 | 0.00 | 0.00 | 0.00 | 97 | 1008.4 |
| 20260506021508 | 11 | 152 | 9.7 | 9.7 | 0.00 | 0.00 | 0.00 | 97 | 1008.6 |
| 20260506021009 | 11 | 207 | 9.7 | 9.7 | 0.00 | 0.00 | 0.00 | 98 | 1008.6 |
| 20260506020508 | 11 | 191 | 9.7 | 9.7 | 0.00 | 0.00 | 0.00 | 99 | 1008.6 |
| 20260506020008 | 11 | 191 | 8.0 | 11.3 | 0.00 | 0.00 | 0.00 | 99 | 1008.5 |
| 20260506015506 | 11 | 176 | 9.7 | 11.3 | 0.00 | 0.00 | 0.00 | 99 | 1008.5 |
| 20260506015007 | 11 | 167 | 8.0 | 9.7 | 0.00 | 0.00 | 0.00 | 99 | 1008.4 |
| 20260506014507 | 11 | 139 | 8.0 | 8.0 | 0.00 | 0.00 | 0.00 | 99 | 1008.4 |
| 20260506014007 | 11 | 129 | 9.7 | 11.3 | 0.00 | 0.00 | 0.00 | 99 | 1008.3 |
| 20260506013508 | 11 | 167 | 8.0 | 9.7 | 0.00 | 0.00 | 0.00 | 98 | 1008.2 |
| 20260506013008 | 11 | 152 | 8.0 | 11.3 | 0.00 | 0.00 | 0.00 | 98 | 1008.3 |
| 20260506012507 | 11 | 181 | 9.7 | 12.9 | 0.00 | 0.00 | 0.00 | 98 | 1008.3 |
| 20260506012007 | 11 | 156 | 8.0 | 14.5 | 0.00 | 0.00 | 0.00 | 98 | 1008.2 |
| 20260506011507 | 11 | 186 | 9.7 | 11.3 | 0.00 | 0.00 | 0.00 | 98 | 1008.1 |
| 20260506011008 | 11 | 171 | 14.5 | 17.7 | 0.00 | 0.00 | 0.00 | 98 | 1008.2 |
| 20260506010507 | 11 | 151 | 11.3 | 12.9 | 0.00 | 0.00 | 0.00 | 98 | 1008.0 |
| 20260506010007 | 12 | 138 | 8.0 | 11.3 | 0.00 | 0.00 | 0.00 | 99 | 1008.1 |
| 20260506005507 | 12 | 127 | 12.9 | 16.1 | 0.00 | 0.00 | 0.00 | 99 | 1008.1 |
| 20260506005007 | 12 | 131 | 16.1 | 17.7 | 0.00 | 0.00 | 0.00 | 99 | 1008.3 |
| 20260506004508 | 12 | 143 | 12.9 | 14.5 | 0.00 | 0.00 | 0.00 | 99 | 1008.2 |
| 20260506004007 | 12 | 126 | 12.9 | 14.5 | 0.00 | 0.00 | 0.00 | 99 | 1008.2 |
| 20260506003507 | 12 | 128 | 14.5 | 16.1 | 0.00 | 0.00 | 0.00 | 99 | 1008.2 |
| 20260506003008 | 12 | 125 | 16.1 | 17.7 | 0.00 | 0.00 | 0.00 | 99 | 1008.2 |
| 20260506002506 | 12 | 130 | 16.1 | 16.1 | 0.00 | 0.00 | 0.00 | 99 | 1008.2 |
| 20260506002007 | 12 | 130 | 11.3 | 11.3 | 0.00 | 0.00 | 0.00 | 98 | 1008.4 |
| 20260506001507 | 12 | 125 | 8.0 | 9.7 | 0.00 | 0.00 | 0.00 | 98 | 1008.3 |
| 20260506001008 | 12 | 131 | 8.0 | 9.7 | 0.00 | 0.00 | 0.00 | 97 | 1008.2 |
| 20260506000508 | 12 | 128 | 8.0 | 8.0 | 0.00 | 0.00 | 0.00 | 96 | 1008.2 |
| 20260506000009 | 12 | 116 | 9.7 | 9.7 | 0.00 | 0.00 | 0.00 | 96 | 1008.0 |
| 20260505235507 | 12 | 125 | 8.0 | 8.0 | 0.00 | 0.00 | 0.00 | 97 | 1007.9 |
| 20260505235007 | 12 | 124 | 11.3 | 12.9 | 0.00 | 0.00 | 0.00 | 98 | 1008.3 |
| 20260505234507 | 12 | 132 | 8.0 | 9.7 | 0.00 | 0.00 | 0.00 | 98 | 1008.2 |
| 20260505234006 | 12 | 111 | 8.0 | 8.0 | 0.00 | 0.00 | 0.00 | 98 | 1008.2 |
| 20260505233508 | 12 | 110 | 9.7 | 11.3 | 0.00 | 0.00 | 0.00 | 98 | 1008.0 |
| 20260505233007 | 12 | 129 | 8.0 | 9.7 | 0.00 | 0.00 | 0.00 | 98 | 1008.3 |
| 20260505232507 | 12 | 132 | 9.7 | 9.7 | 0.00 | 0.00 | 0.00 | 98 | 1008.3 |
| 20260505232007 | 12 | 123 | 9.7 | 9.7 | 0.00 | 0.00 | 0.00 | 98 | 1008.5 |
| 20260505231507 | 12 | 114 | 8.0 | 9.7 | 0.00 | 0.00 | 0.00 | 98 | 1008.4 |
| 20260505231008 | 12 | 108 | 14.5 | 17.7 | 0.00 | 0.00 | 0.00 | 99 | 1008.3 |
| 20260505230007 | 12 | 115 | 17.7 | 20.9 | 0.00 | 0.00 | 0.00 | 98 | 1008.6 |
| 20260505225507 | 12 | 110 | 19.3 | 20.9 | 0.00 | 0.00 | 0.00 | 98 | 1008.8 |
| 20260505225007 | 12 | 119 | 25.7 | 27.4 | 0.00 | 0.00 | 0.00 | 98 | 1009.0 |
| 20260505224507 | 12 | 111 | 20.9 | 22.5 | 0.00 | 0.00 | 0.00 | 97 | 1008.7 |
| 20260505224008 | 12 | 91 | 12.9 | 14.5 | 0.00 | 0.00 | 0.00 | 97 | 1008.7 |
| 20260505223507 | 12 | 102 | 12.9 | 14.5 | 0.00 | 0.00 | 0.00 | 97 | 1008.9 |
| 20260505223009 | 12 | 103 | 12.9 | 12.9 | 0.00 | 0.00 | 0.00 | 97 | 1008.6 |
| 20260505222507 | 12 | 83 | 12.9 | 14.5 | 0.00 | 0.00 | 0.00 | 97 | 1008.7 |
| 20260505222007 | 12 | 107 | 11.3 | 12.9 | 0.00 | 0.00 | 0.00 | 97 | 1008.9 |
| 20260505221508 | 12 | 76 | 8.0 | 12.9 | 0.00 | 0.00 | 0.00 | 97 | 1008.6 |
| 20260505221008 | 12 | 63 | 19.3 | 19.3 | 0.00 | 0.00 | 0.00 | 96 | 1008.5 |
| 20260505220507 | 12 | 53 | 11.3 | 12.9 | 0.00 | 0.00 | 0.00 | 97 | 1008.8 |
| 20260505220008 | 12 | 55 | 14.5 | 16.1 | 0.00 | 0.00 | 0.00 | 98 | 1008.8 |
| 20260505215507 | 12 | 49 | 11.3 | 12.9 | 0.00 | 0.00 | 0.00 | 98 | 1008.8 |
| 20260505214507 | 12 | 46 | 6.4 | 9.7 | 0.00 | 0.00 | 0.00 | 98 | 1009.0 |
| 20260505214007 | 12 | 58 | 8.0 | 9.7 | 0.00 | 0.00 | 0.00 | 98 | 1008.8 |
| 20260505213507 | 12 | 33 | 11.3 | 14.5 | 0.00 | 0.00 | 0.00 | 98 | 1009.0 |
| 20260505213007 | 12 | 43 | 12.9 | 14.5 | 0.00 | 0.00 | 0.00 | 98 | 1009.1 |
| 20260505212508 | 12 | 8 | 3.2 | 8.0 | 0.00 | 0.00 | 0.00 | 98 | 1008.7 |
| 20260505212007 | 12 | 288 | 3.2 | 8.0 | 0.00 | 0.00 | 0.00 | 98 | 1008.8 |
| 20260505211508 | 12 | 259 | 9.7 | 16.1 | 0.00 | 0.00 | 0.00 | 97 | 1008.7 |
| 20260505211007 | 13 | 257 | 4.8 | 6.4 | 0.00 | 0.00 | 0.00 | 96 | 1008.8 |
| 20260505210507 | 13 | 281 | 11.3 | 12.9 | 0.00 | 0.00 | 0.00 | 95 | 1008.5 |
| 20260505210008 | 13 | 257 | 6.4 | 9.7 | 0.00 | 0.00 | 0.00 | 95 | 1008.5 |
| 20260505205507 | 13 | 334 | 14.5 | 14.5 | 0.00 | 0.00 | 0.00 | 95 | 1008.1 |
| 20260505205007 | 13 | 294 | 6.4 | 11.3 | 0.00 | 0.00 | 0.00 | 95 | 1008.2 |
| 20260505204508 | 13 | 196 | 11.3 | 16.1 | 0.00 | 0.00 | 0.00 | 94 | 1008.5 |
| 20260505204007 | 13 | 217 | 8.0 | 19.3 | 0.00 | 0.00 | 0.00 | 92 | 1008.4 |
| 20260505203507 | 13 | 216 | 11.3 | 16.1 | 0.00 | 0.00 | 0.00 | 89 | 1008.0 |
| 20260505203009 | 14 | 57 | 0.0 | 8.0 | 0.00 | 0.00 | 0.00 | 82 | 1007.5 |
| 20260505202508 | 15 | 323 | 8.0 | 8.0 | 0.00 | 0.00 | 0.00 | 75 | 1007.6 |
| 20260505202008 | 16 | 278 | 4.8 | 4.8 | 0.00 | 0.00 | 0.00 | 71 | 1007.6 |
| 20260505201508 | 16 | 320 | 11.3 | 12.9 | 0.00 | 0.00 | 0.00 | 67 | 1007.1 |
| 20260505201007 | 16 | 310 | 8.0 | 8.0 | 0.00 | 0.00 | 0.00 | 65 | 1007.1 |
| 20260505200508 | 16 | 311 | 3.2 | 6.4 | 0.00 | 0.00 | 0.00 | 65 | 1007.0 |
| 20260505200008 | 16 | 229 | 6.4 | 6.4 | 0.00 | 0.00 | 0.00 | 65 | 1007.3 |
| 20260505195506 | 16 | 192 | 4.8 | 6.4 | 0.00 | 0.00 | 0.00 | 66 | 1007.3 |
| 20260505195008 | 16 | 103 | 6.4 | 8.0 | 0.00 | 0.00 | 0.00 | 65 | 1007.0 |
| 20260505194508 | 16 | 92 | 6.4 | 8.0 | 0.00 | 0.00 | 0.00 | 68 | 1007.2 |
| 20260505194007 | 15 | 209 | 16.1 | 19.3 | 0.00 | 0.00 | 0.00 | 71 | 1007.1 |
| 20260505193507 | 16 | 89 | 3.2 | 6.4 | 0.00 | 0.00 | 0.00 | 70 | 1006.6 |
| 20260505192507 | 16 | 73 | 24.1 | 25.7 | 0.00 | 0.00 | 0.00 | 69 | 1006.5 |
| 20260505192007 | 16 | 75 | 20.9 | 27.4 | 0.00 | 0.00 | 0.00 | 69 | 1006.2 |
| 20260505191508 | 16 | 81 | 17.7 | 27.4 | 0.00 | 0.00 | 0.00 | 68 | 1006.4 |
| 20260505191008 | 16 | 81 | 27.4 | 29.0 | 0.00 | 0.00 | 0.00 | 67 | 1006.4 |
| 20260505190507 | 16 | 83 | 27.4 | 30.6 | 0.00 | 0.00 | 0.00 | 66 | 1006.2 |
| 20260505190007 | 17 | 85 | 27.4 | 35.4 | 0.00 | 0.00 | 0.00 | 65 | 1006.4 |
| 20260505185507 | 16 | 88 | 33.8 | 33.8 | 0.00 | 0.00 | 0.00 | 66 | 1006.5 |
| 20260505185008 | 16 | 93 | 35.4 | 37.0 | 0.00 | 0.00 | 0.00 | 66 | 1006.3 |
| 20260505184507 | 16 | 84 | 29.0 | 37.0 | 0.00 | 0.00 | 0.00 | 69 | 1006.6 |
| 20260505184008 | 16 | 81 | 29.0 | 33.8 | 0.00 | 0.00 | 0.00 | 68 | 1006.6 |
| 20260505183507 | 16 | 86 | 35.4 | 35.4 | 0.00 | 0.00 | 0.00 | 66 | 1006.6 |
| 20260505183009 | -1 | 0 | 0.0 | 0.0 | 0.00 | 0.00 | 0.00 | 100 | 1006.5 |
| 20260505182507 | -1 | 0 | 0.0 | 0.0 | 0.00 | 0.00 | 0.00 | 100 | 1006.4 |
| 20260505182008 | 17 | 98 | 37.0 | 40.2 | 0.00 | 0.00 | 0.00 | 62 | 1006.4 |
| 20260505181508 | 17 | 98 | 37.0 | 40.2 | 0.00 | 0.00 | 0.00 | 62 | 1006.1 |
| 20260505181008 | 17 | 94 | 35.4 | 40.2 | 0.00 | 0.00 | 0.00 | 61 | 1006.4 |
| 20260505180507 | 17 | 95 | 33.8 | 37.0 | 0.00 | 0.00 | 0.00 | 61 | 1006.4 |
| 20260505180007 | 17 | 103 | 37.0 | 38.6 | 0.00 | 0.00 | 0.00 | 61 | 1006.5 |
| 20260505175507 | 17 | 101 | 35.4 | 38.6 | 0.00 | 0.00 | 0.00 | 61 | 1006.7 |
| 20260505175007 | 17 | 107 | 37.0 | 41.8 | 0.00 | 0.00 | 0.00 | 60 | 1006.7 |
| 20260505174507 | 17 | 102 | 37.0 | 40.2 | 0.00 | 0.00 | 0.00 | 61 | 1006.7 |
| 20260505174007 | 17 | 109 | 32.2 | 37.0 | 0.00 | 0.00 | 0.00 | 62 | 1007.0 |
| 20260505173508 | 17 | 107 | 38.6 | 43.5 | 0.00 | 0.00 | 0.00 | 61 | 1007.0 |
| 20260505172508 | 17 | 108 | 48.3 | 49.9 | 0.00 | 0.00 | 0.00 | 61 | 1006.9 |
| 20260505172008 | 17 | 108 | 45.1 | 57.9 | 0.00 | 0.00 | 0.00 | 61 | 1007.2 |
| 20260505171507 | 18 | 113 | 53.1 | 59.5 | 0.00 | 0.00 | 0.00 | 61 | 1007.3 |
| 20260505171008 | 18 | 109 | 43.5 | 48.3 | 0.00 | 0.00 | 0.00 | 62 | 1007.1 |
| 20260505170507 | 18 | 106 | 43.5 | 43.5 | 0.00 | 0.00 | 0.00 | 62 | 1007.4 |
| 20260505170007 | 18 | 112 | 46.7 | 51.5 | 0.00 | 0.00 | 0.00 | 61 | 1007.4 |
| 20260505165508 | 18 | 117 | 41.8 | 49.9 | 0.00 | 0.00 | 0.00 | 60 | 1007.5 |
| 20260505165007 | 18 | 106 | 40.2 | 48.3 | 0.00 | 0.00 | 0.00 | 61 | 1007.5 |
| 20260505164508 | 18 | 114 | 49.9 | 53.1 | 0.00 | 0.00 | 0.00 | 62 | 1007.9 |
| 20260505164007 | 18 | 113 | 40.2 | 41.8 | 0.00 | 0.00 | 0.00 | 61 | 1007.8 |
| 20260505163508 | 18 | 111 | 35.4 | 41.8 | 0.00 | 0.00 | 0.00 | 62 | 1007.7 |
| 20260505163009 | 18 | 114 | 38.6 | 41.8 | 0.00 | 0.00 | 0.00 | 61 | 1007.6 |
| 20260505162508 | 18 | 116 | 40.2 | 49.9 | 0.00 | 0.00 | 0.00 | 59 | 1007.5 |
| 20260505162006 | 19 | 114 | 49.9 | 56.3 | 0.00 | 0.00 | 0.00 | 56 | 1007.7 |
| 20260505161508 | 20 | 119 | 40.2 | 46.7 | 0.00 | 0.00 | 0.00 | 57 | 1007.8 |
| 20260505161008 | 21 | 104 | 40.2 | 51.5 | 0.00 | 0.00 | 0.00 | 54 | 1007.7 |
| 20260505160507 | 21 | 101 | 33.8 | 38.6 | 0.00 | 0.00 | 0.00 | 53 | 1007.6 |
| 20260505153007 | 22 | 103 | 37.0 | 40.2 | 0.00 | 0.00 | 0.00 | 47 | 1007.9 |
| 20260505152507 | 21 | 100 | 27.4 | 30.6 | 0.00 | 0.00 | 0.00 | 48 | 1008.0 |
| 20260505152007 | 21 | 126 | 37.0 | 38.6 | 0.00 | 0.00 | 0.00 | 48 | 1007.9 |
| 20260505151508 | 21 | 116 | 37.0 | 38.6 | 0.00 | 0.00 | 0.00 | 46 | 1008.0 |
| 20260505151007 | 22 | 107 | 24.1 | 37.0 | 0.00 | 0.00 | 0.00 | 44 | 1008.3 |
| 20260505150508 | 23 | 100 | 24.1 | 27.4 | 0.00 | 0.00 | 0.00 | 44 | 1008.3 |
| 20260505140508 | 22 | 69 | 19.3 | 20.9 | 0.00 | 0.00 | 0.00 | 45 | 1008.8 |
| 20260505125007 | 22 | 92 | 32.2 | 35.4 | 0.00 | 0.00 | 0.00 | 47 | 1009.6 |
| 20260505124508 | 22 | 88 | 30.6 | 33.8 | 0.00 | 0.00 | 0.00 | 47 | 1009.4 |
| 20260505124008 | 21 | 95 | 29.0 | 32.2 | 0.00 | 0.00 | 0.00 | 48 | 1009.4 |
| 20260505123508 | 22 | 96 | 25.7 | 32.2 | 0.00 | 0.00 | 0.00 | 47 | 1009.3 |
| 20260505123008 | 22 | 83 | 27.4 | 29.0 | 0.00 | 0.00 | 0.00 | 48 | 1009.5 |
| 20260505122508 | 22 | 74 | 25.7 | 27.4 | 0.00 | 0.00 | 0.00 | 49 | 1009.3 |
| 20260505122007 | 22 | 94 | 33.8 | 33.8 | 0.00 | 0.00 | 0.00 | 50 | 1009.4 |
| 20260505121507 | 21 | 89 | 35.4 | 37.0 | 0.00 | 0.00 | 0.00 | 49 | 1009.6 |
| 20260505121009 | -17 | 0 | 0.0 | 0.0 | 0.00 | 0.00 | 0.00 | 100 | 1009.6 |
| 20260505120508 | -17 | 0 | 0.0 | 0.0 | 0.00 | 0.00 | 0.00 | 100 | 1009.7 |
| 20260505120007 | -1 | 0 | 0.0 | 0.0 | 0.00 | 0.00 | 0.00 | 100 | 1009.8 |
| 20260505115507 | -1 | 0 | 0.0 | 0.0 | 0.00 | 0.00 | 0.00 | 100 | 1009.7 |
| 20260505115007 | -1 | 0 | 0.0 | 0.0 | 0.00 | 0.00 | 0.00 | 100 | 1009.8 |
| 20260505114507 | -1 | 0 | 0.0 | 0.0 | 0.00 | 0.00 | 0.00 | 100 | 1009.7 |
| 20260505113509 | -1 | 0 | 0.0 | 0.0 | 0.00 | 0.00 | 0.00 | 100 | 1010.0 |
| 20260505113008 | -1 | 0 | 0.0 | 0.0 | 0.00 | 0.00 | 0.00 | 100 | 1009.9 |
| 20260505112509 | -1 | 0 | 0.0 | 0.0 | 0.00 | 0.00 | 0.00 | 100 | 1010.1 |
| 20260505112008 | -1 | 0 | 0.0 | 0.0 | 0.00 | 0.00 | 0.00 | 100 | 1010.1 |
| 20260505111507 | -1 | 0 | 0.0 | 0.0 | 0.00 | 0.00 | 0.00 | 100 | 1010.1 |
| 20260505111008 | 20 | 58 | 25.7 | 25.7 | 0.00 | 0.00 | 0.00 | 51 | 1010.2 |
| 20260505110507 | 20 | 58 | 25.7 | 25.7 | 0.00 | 0.00 | 0.00 | 51 | 1010.3 |